[[{"header":{"parameterUnit":"m.s-1","parameterCategory":1,"la1":30.2991,"la2":30.254,"lo1":-89.0895,"lo2":-89.0444,"dy":0.0017,"dx":0.0017,"nx":28,"ny":28,"refTime":"2024-06-29T03:00:00:Z","depth":0,"parameterNumber":2,"parameterNumberName":"U-component_of_WINDS"},"data":[0,0,0,0,0,0,0,0,0,0,0,0,0,0,0,0,0,0,0,0,0,0,0,0,0,0,0,0,0,0,0,0,0,0,0,0,0,0,0,0,0,0,0,0,0,0,0,0,0,0,0,0,0,0,0,0,0,0,2.3909,2.3911,0,2.4048,2.4049,2.4051,2.4018,2.4016,2.4013,2.401,2.4155,2.4161,2.4167,0,0,0,0,0,0,0,0,0,0,0,0,0,2.3617,2.3623,2.3909,2.3911,2.3912,2.4048,2.4049,2.4051,2.4019,2.4015,2.4012,2.4009,2.4153,2.416,2.4168,0,0,0,0,0,0,0,0,0,0,0,0,0,2.3749,2.3625,2.3909,2.3912,2.3914,2.4047,2.405,2.4052,2.4019,2.4015,2.4011,2.4008,2.415,2.4159,2.4169,2.4307,0,0,2.4198,2.4202,0,0,0,0,0,0,0,0,2.3742,2.376,2.391,2.3912,2.3915,2.4012,2.3999,2.4138,2.402,2.398,2.401,2.4006,2.411,2.4123,2.4158,2.4314,2.432,2.4198,2.4204,2.4208,2.4211,0,0,0,0,0,0,0,2.3732,2.3754,2.3964,2.3912,2.3915,2.3908,2.3922,2.4025,2.4066,2.3983,2.3981,2.3997,2.4111,2.4149,2.4161,2.4322,2.4198,2.4207,2.4212,2.4216,2.46,2.4604,0,0,0,0,0,0,2.3721,2.3746,2.396,2.3968,2.3816,2.3916,2.3932,2.3984,2.4064,2.4073,2.4001,2.3995,2.4134,2.415,2.4166,2.4334,2.4208,2.4217,2.4223,2.4595,2.4601,2.4605,0,0,0,0,0,0,2.3715,2.3741,2.3954,2.3857,2.3883,2.3925,2.3985,2.3989,2.4027,2.4078,2.4085,2.4032,2.4132,2.4152,2.4272,2.4338,2.4221,2.423,2.459,2.4597,2.4603,2.4671,0,0,0,0,0,0,2.3707,2.3739,2.3791,2.3858,2.3889,2.4058,2.3989,2.3995,2.4043,2.4038,2.4109,2.4117,2.413,2.4258,2.4282,2.4349,2.4237,2.4584,2.4593,2.4601,2.4663,2.4679,2.4693,0,0,0,0,0,2.3697,2.3805,2.3794,2.382,2.3955,2.4062,2.4079,2.4091,2.4049,2.4103,2.4135,2.4115,2.4327,2.4271,2.4297,2.4369,2.458,2.459,2.46,2.4656,2.4676,2.4693,0,0,0,0,0,0,2.3746,2.3814,2.3803,2.3936,2.3993,2.4056,2.4124,2.4112,2.4183,2.4175,2.4187,2.4204,2.4326,2.4359,2.4295,2.4507,2.4448,2.4463,2.4481,2.45,2.4515,2.4505,2.4245,0,0,0,0,0,2.3772,2.3853,2.3908,2.402,2.4049,2.4082,2.4129,2.4133,2.4193,2.4217,2.4259,2.4318,2.4398,2.4451,2.4527,2.4667,2.4683,2.4729,2.4744,2.4756,2.477,2.4847,2.4869,2.4639,2.4639,2.4638,0,0,2.3828,2.3875,2.3925,2.4031,2.4076,2.416,2.4103,2.4193,2.4255,2.4231,2.4347,2.4379,2.4447,2.4577,2.4637,2.4609,2.4837,2.4769,2.4778,2.4786,2.486,2.4882,2.4901,2.4646,2.4644,2.4643,0,0,2.3972,2.4015,2.4114,2.416,2.4228,2.4249,2.4272,2.4337,2.4358,2.4474,2.4457,2.4532,2.4669,2.4718,2.4761,2.4923,2.4907,2.4947,2.5026,2.5101,2.5119,2.5135,2.5194,2.5215,2.4961,2.4961,2.4961,0,2.4033,2.4157,2.4166,2.4259,2.4306,2.4287,2.4388,2.4432,2.4522,2.4556,2.4522,2.4694,2.4738,2.488,2.492,2.4955,2.4983,2.494,2.5116,2.5132,2.5147,2.5203,2.5225,2.4965,2.4965,2.4964,2.4964,0,2.4229,2.4315,2.4387,2.4474,2.4529,2.4625,2.4649,2.4704,2.4704,2.4728,2.4847,2.4899,2.4985,2.5019,2.502,2.5162,2.5142,2.5112,2.5053,2.5174,2.5227,2.5248,2.4972,2.497,2.4969,2.4968,0,0,2.4409,2.4499,2.4526,2.4565,2.4638,2.4706,2.4801,2.4885,2.4932,2.4995,2.5076,2.5192,2.5165,2.5213,2.5219,2.5285,2.5411,2.5247,2.5249,2.5276,2.5571,2.5594,2.5618,2.54,2.5404,2.5407,2.5566,0,2.4561,2.4728,2.4739,2.489,2.497,2.4953,2.5036,2.509,2.5116,2.5188,2.5216,2.5298,2.5256,2.5285,2.5349,2.5382,2.547,2.537,2.5476,2.548,2.5461,2.5646,2.5671,2.5818,2.5586,2.559,2.5592,0,2.476,2.4828,2.4987,2.505,2.5084,2.5158,2.5236,2.5305,2.5366,2.538,2.5434,2.543,2.5529,2.5465,2.5601,2.5532,2.5576,2.5599,2.5605,2.5616,2.5544,2.5664,2.5865,2.5887,2.5625,2.5622,2.562,0,2.4877,2.5009,2.5121,2.5155,2.523,2.5283,2.5316,2.5374,2.5423,2.5492,2.5524,2.5603,2.5647,2.5708,2.5727,2.5678,2.5862,2.58,2.5877,2.5877,2.5918,2.5916,2.613,2.5944,2.5944,2.5944,2.5943,0,2.5046,2.5145,2.5174,2.5244,2.5353,2.5365,2.5473,2.5504,2.5555,2.563,2.562,2.5691,2.571,2.5785,2.5799,2.591,2.593,2.5944,2.5947,2.5946,2.5944,2.5976,2.5966,2.595,2.5948,2.5947,2.5946,0,2.5196,2.522,2.5341,2.5402,2.542,2.5498,2.555,2.5617,2.564,2.5736,2.5759,2.5795,2.5883,2.5906,2.6011,2.6021,2.6152,2.6145,2.6131,2.6131,2.6208,2.6201,2.6451,2.6485,2.6276,2.6278,2.628,0,2.5303,2.5378,2.5447,2.5496,2.5532,2.5612,2.5662,2.5676,2.5729,2.5805,2.5863,2.5948,2.6018,2.6158,2.6195,2.6275,2.6271,2.6353,2.6283,2.6279,2.6273,2.6269,2.6277,2.6367,2.6369,2.6371,2.6372,0,2.5491,2.5499,2.5571,2.5649,2.5709,2.5771,2.583,2.5871,2.5893,2.5954,2.6043,2.6096,2.6203,2.6289,2.6369,2.6405,2.6393,2.6394,2.6416,2.6416,2.6405,2.6413,2.6168,2.6388,2.6387,2.6385,2.6384,2.6384,2.5624,2.569,2.5748,2.583,2.5875,2.593,2.5996,2.6027,2.6101,2.6188,2.6192,2.6289,2.6348,2.6455,2.6495,2.6571,2.6547,2.6579,2.6587,2.6595,2.6602,2.6392,2.6586,2.6585,2.6585,2.6585,2.6584,0,2.5811,2.5848,2.5923,2.6005,2.607,2.6051,2.6115,2.6171,2.6255,2.6311,2.638,2.6482,2.6565,2.6607,2.669,2.6742,2.6739,2.6764,2.6761,2.6769,2.6619,2.6592,2.6765,2.6765,2.6765,2.6765,2.6765,2.6765,2.5917,2.6028,2.6042,2.6176,2.6212,2.6306,2.6344,2.6395,2.644,2.6554,2.6622,2.6649,2.67,2.6786,2.6861,2.6872,2.6903,2.6931,2.6939,2.6798,2.678,2.6762,2.6737,2.6937,2.6938,2.7082,2.7084,2.7085]},{"header":{"parameterUnit":"m.s-1","parameterCategory":1,"la1":30.2991,"la2":30.254,"lo1":-89.0895,"lo2":-89.0444,"dy":0.0017,"dx":0.0017,"nx":28,"ny":28,"refTime":"2024-06-29T03:00:00:Z","depth":0,"parameterNumber":3,"parameterNumberName":"V-component_of_WINDS"},"data":[0,0,0,0,0,0,0,0,0,0,0,0,0,0,0,0,0,0,0,0,0,0,0,0,0,0,0,0,0,0,0,0,0,0,0,0,0,0,0,0,0,0,0,0,0,0,0,0,0,0,0,0,0,0,0,0,0,0,-1.4169,-1.417,0,-1.4239,-1.424,-1.4241,-1.4277,-1.4277,-1.4277,-1.4277,-1.4347,-1.4349,-1.4351,0,0,0,0,0,0,0,0,0,0,0,0,0,-1.4066,-1.4068,-1.4169,-1.417,-1.4171,-1.4239,-1.424,-1.4241,-1.4277,-1.4277,-1.4277,-1.4277,-1.4347,-1.4349,-1.4351,0,0,0,0,0,0,0,0,0,0,0,0,0,-1.4121,-1.4069,-1.4169,-1.4197,-1.42,-1.4239,-1.424,-1.4241,-1.4277,-1.4277,-1.4277,-1.4277,-1.4346,-1.4349,-1.4351,-1.4367,0,0,-1.436,-1.4361,0,0,0,0,0,0,0,0,-1.4118,-1.4125,-1.4192,-1.4195,-1.4199,-1.4249,-1.423,-1.4283,-1.4277,-1.4248,-1.4277,-1.4277,-1.4315,-1.432,-1.4333,-1.4371,-1.4374,-1.436,-1.4362,-1.4363,-1.4364,0,0,0,0,0,0,0,-1.4114,-1.4122,-1.4197,-1.4193,-1.4197,-1.4206,-1.4214,-1.424,-1.428,-1.425,-1.4253,-1.4261,-1.4316,-1.433,-1.4335,-1.4375,-1.436,-1.4363,-1.4364,-1.4365,-1.4429,-1.4429,0,0,0,0,0,0,-1.4106,-1.4119,-1.4195,-1.4199,-1.4158,-1.4208,-1.4216,-1.4233,-1.428,-1.4287,-1.4261,-1.4262,-1.4325,-1.4332,-1.4337,-1.4359,-1.4363,-1.4366,-1.4367,-1.4429,-1.4429,-1.4429,0,0,0,0,0,0,-1.4104,-1.4112,-1.4192,-1.416,-1.417,-1.4209,-1.4228,-1.4234,-1.4248,-1.4288,-1.4295,-1.4267,-1.4326,-1.4334,-1.436,-1.4362,-1.4367,-1.4369,-1.4429,-1.4429,-1.4429,-1.4403,0,0,0,0,0,0,-1.41,-1.4111,-1.4118,-1.4159,-1.4172,-1.4213,-1.4228,-1.4236,-1.4253,-1.4255,-1.4296,-1.4302,-1.4326,-1.4355,-1.4362,-1.4366,-1.4371,-1.4429,-1.4429,-1.4429,-1.4404,-1.4402,-1.4401,0,0,0,0,0,-1.4097,-1.4107,-1.4118,-1.4127,-1.4181,-1.4213,-1.422,-1.4248,-1.4253,-1.426,-1.4285,-1.4301,-1.4361,-1.4358,-1.4366,-1.4371,-1.4429,-1.4429,-1.4429,-1.4404,-1.4402,-1.4401,0,0,0,0,0,0,-1.4064,-1.4113,-1.4126,-1.415,-1.4177,-1.4219,-1.4228,-1.4244,-1.427,-1.4272,-1.4305,-1.4313,-1.4337,-1.4356,-1.4352,-1.4389,-1.4397,-1.4398,-1.4375,-1.4373,-1.4372,-1.4366,-1.4374,0,0,0,0,0,-1.406,-1.4082,-1.4124,-1.4141,-1.4154,-1.4189,-1.4204,-1.4223,-1.4252,-1.4264,-1.4291,-1.4319,-1.4344,-1.436,-1.4385,-1.4407,-1.4416,-1.4414,-1.4412,-1.4411,-1.4412,-1.4425,-1.4425,-1.443,-1.443,-1.443,0,0,-1.4052,-1.4081,-1.4093,-1.4136,-1.4159,-1.4181,-1.4198,-1.4221,-1.4238,-1.4267,-1.4294,-1.4315,-1.4348,-1.4372,-1.4384,-1.4389,-1.4413,-1.4411,-1.441,-1.4412,-1.4425,-1.4425,-1.4425,-1.443,-1.443,-1.443,0,0,-1.4047,-1.4072,-1.4089,-1.4112,-1.4147,-1.417,-1.4174,-1.4214,-1.4229,-1.4257,-1.4279,-1.43,-1.4342,-1.4365,-1.4382,-1.4387,-1.4403,-1.4394,-1.4386,-1.4399,-1.4398,-1.4398,-1.44,-1.44,-1.4395,-1.4395,-1.4395,0,-1.4032,-1.4067,-1.4096,-1.4118,-1.4136,-1.4164,-1.4182,-1.4203,-1.4244,-1.4256,-1.4261,-1.4315,-1.4339,-1.4369,-1.4371,-1.4384,-1.4389,-1.439,-1.4396,-1.4396,-1.4396,-1.4399,-1.4399,-1.4394,-1.4394,-1.4394,-1.4394,0,-1.4046,-1.407,-1.408,-1.4119,-1.4139,-1.4158,-1.4191,-1.4207,-1.4224,-1.4246,-1.4274,-1.4304,-1.4336,-1.4345,-1.4361,-1.4377,-1.4379,-1.439,-1.4398,-1.4394,-1.4397,-1.4398,-1.4392,-1.4392,-1.4393,-1.4393,0,0,-1.4023,-1.4079,-1.4082,-1.4101,-1.4142,-1.4161,-1.4182,-1.4213,-1.4227,-1.4254,-1.4273,-1.4308,-1.4318,-1.4338,-1.4358,-1.4369,-1.4371,-1.4378,-1.4379,-1.4376,-1.4391,-1.4382,-1.4383,-1.4382,-1.4382,-1.4382,-1.4388,0,-1.4025,-1.4064,-1.4091,-1.412,-1.4142,-1.4169,-1.4187,-1.4214,-1.4236,-1.4258,-1.4282,-1.4307,-1.4318,-1.433,-1.4342,-1.4368,-1.4374,-1.4368,-1.4399,-1.44,-1.439,-1.4384,-1.4376,-1.438,-1.4389,-1.4389,-1.4389,0,-1.4032,-1.4059,-1.409,-1.4129,-1.4139,-1.4155,-1.4187,-1.4207,-1.4239,-1.4254,-1.4276,-1.4296,-1.4319,-1.4326,-1.4359,-1.4354,-1.4368,-1.4383,-1.4384,-1.4388,-1.4394,-1.4388,-1.4381,-1.4382,-1.4391,-1.4391,-1.4391,0,-1.4012,-1.4056,-1.4081,-1.4096,-1.4142,-1.4152,-1.4172,-1.4204,-1.4221,-1.4249,-1.426,-1.429,-1.4306,-1.4329,-1.4357,-1.4359,-1.4387,-1.4395,-1.44,-1.4399,-1.4404,-1.4404,-1.44,-1.4413,-1.4413,-1.4413,-1.4413,0,-1.4011,-1.4029,-1.4072,-1.4087,-1.4108,-1.4139,-1.4159,-1.4181,-1.4209,-1.4229,-1.4254,-1.4272,-1.4308,-1.433,-1.4352,-1.4376,-1.4383,-1.4396,-1.4401,-1.4394,-1.4392,-1.4404,-1.4404,-1.4413,-1.4413,-1.4413,-1.4413,0,-1.3992,-1.4022,-1.4051,-1.4092,-1.4103,-1.4117,-1.4152,-1.4168,-1.4191,-1.4216,-1.4223,-1.4259,-1.4287,-1.4317,-1.4355,-1.437,-1.4393,-1.4401,-1.4382,-1.4385,-1.4388,-1.4387,-1.4391,-1.4394,-1.4405,-1.4405,-1.4405,0,-1.3989,-1.4004,-1.4047,-1.4062,-1.4081,-1.4105,-1.4123,-1.4155,-1.4173,-1.421,-1.4221,-1.4251,-1.4276,-1.4319,-1.4349,-1.4378,-1.4387,-1.4386,-1.4391,-1.4383,-1.4387,-1.4386,-1.4388,-1.4385,-1.4384,-1.4384,-1.4384,0,-1.3981,-1.3996,-1.4021,-1.4051,-1.4072,-1.4098,-1.4124,-1.4135,-1.4172,-1.4191,-1.422,-1.4239,-1.4278,-1.4307,-1.434,-1.436,-1.4378,-1.4382,-1.4385,-1.4377,-1.4366,-1.4372,-1.4378,-1.4382,-1.4382,-1.4382,-1.4382,-1.4382,-1.3971,-1.3985,-1.4018,-1.4045,-1.4069,-1.4093,-1.411,-1.4135,-1.416,-1.4194,-1.4211,-1.424,-1.4271,-1.4317,-1.4337,-1.436,-1.4366,-1.4369,-1.437,-1.4371,-1.4369,-1.4362,-1.4366,-1.4367,-1.4367,-1.4367,-1.4367,0,-1.3964,-1.3987,-1.4012,-1.4048,-1.407,-1.4085,-1.4115,-1.4132,-1.4157,-1.4185,-1.421,-1.4243,-1.4272,-1.4304,-1.4335,-1.4347,-1.4356,-1.4354,-1.4353,-1.4358,-1.4362,-1.4357,-1.4346,-1.4346,-1.4346,-1.4346,-1.4346,-1.4346,-1.3963,-1.3988,-1.4006,-1.4043,-1.4066,-1.4094,-1.411,-1.4133,-1.4156,-1.4192,-1.4216,-1.4237,-1.4267,-1.43,-1.4327,-1.4336,-1.4346,-1.4342,-1.4353,-1.4356,-1.4358,-1.4359,-1.4355,-1.4344,-1.4344,-1.4347,-1.4347,-1.4347]}]]